Time,TemperatureF,DewpointF,PressureIn,WindDirection,WindDirectionDegrees,WindSpeedMPH,WindSpeedGustMPH,Humidity,HourlyPrecipIn,Conditions,Clouds,dailyrainin,SoftwareType,DateUTC
2013-08-08 00:01:00,65.8,60.1,30.06,SSE,165,0.0,0.0,82,0.00,,,0.00,WeatherCatV1.10B1784,2013-08-08 04:01:00,
2013-08-08 00:06:00,65.7,60.0,30.06,SSE,165,0.0,0.0,82,0.00,,,0.00,WeatherCatV1.10B1784,2013-08-08 04:06:00,
2013-08-08 00:11:00,65.7,60.0,30.06,SSE,165,0.0,1.0,82,0.00,,,0.00,WeatherCatV1.10B1784,2013-08-08 04:11:00,
2013-08-08 00:16:00,65.6,59.9,30.06,SSE,165,0.0,0.0,82,0.00,,,0.00,WeatherCatV1.10B1784,2013-08-08 04:16:00,
2013-08-08 00:21:00,65.6,59.9,30.06,SSE,165,0.0,1.0,82,0.00,,,0.00,WeatherCatV1.10B1784,2013-08-08 04:21:00,
2013-08-08 00:26:00,65.6,59.9,30.06,SSE,165,0.0,1.0,82,0.00,,,0.00,WeatherCatV1.10B1784,2013-08-08 04:26:00,
2013-08-08 00:31:00,65.5,59.9,30.06,SSE,165,0.0,1.0,82,0.00,,,0.00,WeatherCatV1.10B1784,2013-08-08 04:31:00,
2013-08-08 00:36:00,65.5,59.9,30.05,SSE,163,0.0,1.0,82,0.00,,,0.00,WeatherCatV1.10B1784,2013-08-08 04:36:00,
2013-08-08 00:41:00,65.5,59.9,30.05,SSE,148,0.0,2.0,82,0.00,,,0.00,WeatherCatV1.10B1784,2013-08-08 04:41:00,
2013-08-08 00:46:00,65.6,59.9,30.05,SSE,151,4.0,4.0,82,0.00,,,0.00,WeatherCatV1.10B1784,2013-08-08 04:46:00,
2013-08-08 00:51:00,65.5,59.9,30.05,SSW,208,0.0,0.0,82,0.00,,,0.00,WeatherCatV1.10B1784,2013-08-08 04:51:00,
2013-08-08 00:56:00,65.6,59.9,30.04,SSW,200,0.0,1.0,82,0.00,,,0.00,WeatherCatV1.10B1784,2013-08-08 04:56:00,
2013-08-08 01:01:00,65.7,60.0,30.04,SSE,159,0.0,7.0,82,0.00,,,0.00,WeatherCatV1.10B1784,2013-08-08 05:01:00,
2013-08-08 01:06:00,65.7,60.0,30.04,SSE,151,3.0,5.0,82,0.00,,,0.00,WeatherCatV1.10B1784,2013-08-08 05:06:00,
2013-08-08 01:11:00,65.7,60.0,30.04,South,170,0.0,4.0,82,0.00,,,0.00,WeatherCatV1.10B1784,2013-08-08 05:11:00,
2013-08-08 01:16:00,65.7,60.0,30.04,SSE,157,2.0,5.0,82,0.00,,,0.00,WeatherCatV1.10B1784,2013-08-08 05:16:00,
2013-08-08 01:21:00,65.8,60.1,30.04,SSE,154,0.0,4.0,82,0.00,,,0.00,WeatherCatV1.10B1784,2013-08-08 05:21:00,
2013-08-08 01:26:00,65.8,60.1,30.04,SSE,151,2.0,2.0,82,0.00,,,0.00,WeatherCatV1.10B1784,2013-08-08 05:26:00,
2013-08-08 01:31:00,65.9,60.2,30.04,South,170,0.0,2.0,82,0.00,,,0.00,WeatherCatV1.10B1784,2013-08-08 05:31:00,
2013-08-08 01:36:00,65.9,60.2,30.04,SSE,161,0.0,3.0,82,0.00,,,0.00,WeatherCatV1.10B1784,2013-08-08 05:36:00,
2013-08-08 01:41:00,65.9,60.6,30.04,SE,142,0.0,5.0,83,0.00,,,0.00,WeatherCatV1.10B1784,2013-08-08 05:41:00,
2013-08-08 01:46:00,66.0,60.7,30.04,SE,142,0.0,2.0,83,0.00,,,0.00,WeatherCatV1.10B1784,2013-08-08 05:46:00,
2013-08-08 01:51:00,66.0,60.7,30.03,South,175,0.0,4.0,83,0.00,,,0.00,WeatherCatV1.10B1784,2013-08-08 05:51:00,
2013-08-08 01:56:00,66.0,60.7,30.04,SE,140,3.0,4.0,83,0.00,,,0.00,WeatherCatV1.10B1784,2013-08-08 05:56:00,
2013-08-08 02:01:00,66.0,60.7,30.03,SSE,158,0.0,6.0,83,0.00,,,0.00,WeatherCatV1.10B1784,2013-08-08 06:01:00,
2013-08-08 02:06:00,66.0,60.7,30.03,SSE,148,1.0,3.0,83,0.00,,,0.00,WeatherCatV1.10B1784,2013-08-08 06:06:00,
2013-08-08 02:11:00,66.0,60.7,30.03,SE,143,0.0,4.0,83,0.00,,,0.00,WeatherCatV1.10B1784,2013-08-08 06:11:00,
2013-08-08 02:16:00,66.1,60.8,30.03,SE,131,0.0,6.0,83,0.00,,,0.00,WeatherCatV1.10B1784,2013-08-08 06:16:00,
2013-08-08 02:21:00,66.1,60.8,30.03,SE,144,0.0,0.0,83,0.00,,,0.00,WeatherCatV1.10B1784,2013-08-08 06:21:00,
2013-08-08 02:26:00,66.1,60.8,30.03,SE,144,0.0,0.0,83,0.00,,,0.00,WeatherCatV1.10B1784,2013-08-08 06:26:00,
2013-08-08 02:31:00,66.1,60.8,30.03,SE,146,0.0,0.0,83,0.00,,,0.00,WeatherCatV1.10B1784,2013-08-08 06:31:00,
2013-08-08 02:36:00,66.1,60.8,30.03,SE,146,0.0,1.0,83,0.00,,,0.00,WeatherCatV1.10B1784,2013-08-08 06:36:00,
2013-08-08 02:41:00,66.1,61.1,30.03,SE,146,0.0,0.0,84,0.00,,,0.00,WeatherCatV1.10B1784,2013-08-08 06:41:00,
2013-08-08 02:46:00,66.1,61.1,30.03,SSE,148,0.0,4.0,84,0.00,,,0.00,WeatherCatV1.10B1784,2013-08-08 06:46:00,
2013-08-08 02:51:00,66.1,61.1,30.03,SSE,148,0.0,2.0,84,0.00,,,0.00,WeatherCatV1.10B1784,2013-08-08 06:51:00,
2013-08-08 02:56:00,66.1,61.1,30.03,SSE,148,0.0,0.0,84,0.00,,,0.00,WeatherCatV1.10B1784,2013-08-08 06:56:00,
2013-08-08 03:01:00,66.0,61.0,30.03,SSE,148,0.0,2.0,84,0.00,,,0.00,WeatherCatV1.10B1784,2013-08-08 07:01:00,
2013-08-08 03:06:00,66.0,61.0,30.03,SSE,148,0.0,0.0,84,0.00,,,0.00,WeatherCatV1.10B1784,2013-08-08 07:06:00,
2013-08-08 03:11:00,66.0,61.0,30.03,SE,146,1.0,3.0,84,0.00,,,0.00,WeatherCatV1.10B1784,2013-08-08 07:11:00,
2013-08-08 03:16:00,66.0,61.0,30.03,SE,146,0.0,2.0,84,0.00,,,0.00,WeatherCatV1.10B1784,2013-08-08 07:16:00,
2013-08-08 03:21:00,66.0,61.0,30.03,SE,146,4.0,4.0,84,0.00,,,0.00,WeatherCatV1.10B1784,2013-08-08 07:21:00,
2013-08-08 03:26:00,66.0,61.0,30.02,SE,146,0.0,0.0,84,0.00,,,0.00,WeatherCatV1.10B1784,2013-08-08 07:26:00,
2013-08-08 03:31:00,66.0,61.0,30.02,SE,146,0.0,0.0,84,0.00,,,0.00,WeatherCatV1.10B1784,2013-08-08 07:31:00,
2013-08-08 03:36:00,66.0,61.0,30.02,SE,130,0.0,6.0,84,0.00,,,0.00,WeatherCatV1.10B1784,2013-08-08 07:36:00,
2013-08-08 03:41:00,66.1,61.1,30.02,South,186,2.0,4.0,84,0.00,,,0.00,WeatherCatV1.10B1784,2013-08-08 07:41:00,
2013-08-08 03:46:00,66.1,61.5,30.02,SE,144,0.0,3.0,85,0.00,,,0.00,WeatherCatV1.10B1784,2013-08-08 07:46:00,
2013-08-08 03:51:00,66.1,61.5,30.02,SE,146,0.0,0.0,85,0.00,,,0.00,WeatherCatV1.10B1784,2013-08-08 07:51:00,
2013-08-08 03:56:00,66.1,61.5,30.02,SE,146,0.0,6.0,85,0.00,,,0.00,WeatherCatV1.10B1784,2013-08-08 07:56:00,
2013-08-08 04:01:00,66.2,61.5,30.02,SE,145,0.0,3.0,85,0.00,,,0.00,WeatherCatV1.10B1784,2013-08-08 08:01:00,
2013-08-08 04:06:00,66.2,61.5,30.02,SE,146,4.0,4.0,85,0.00,,,0.00,WeatherCatV1.10B1784,2013-08-08 08:06:00,
2013-08-08 04:11:00,66.2,61.5,30.01,SSE,147,0.0,5.0,85,0.00,,,0.00,WeatherCatV1.10B1784,2013-08-08 08:11:00,
2013-08-08 04:16:00,66.3,61.6,30.01,SE,143,0.0,4.0,85,0.00,,,0.00,WeatherCatV1.10B1784,2013-08-08 08:16:00,
2013-08-08 04:21:00,66.3,61.6,30.01,SE,143,0.0,0.0,85,0.00,,,0.00,WeatherCatV1.10B1784,2013-08-08 08:21:00,
2013-08-08 04:26:00,66.3,61.6,30.01,SE,143,1.0,1.0,85,0.00,,,0.00,WeatherCatV1.10B1784,2013-08-08 08:26:00,
2013-08-08 04:31:00,66.3,61.6,30.01,SE,143,0.0,0.0,85,0.00,,,0.00,WeatherCatV1.10B1784,2013-08-08 08:31:00,
2013-08-08 04:36:00,66.3,62.0,30.01,SE,142,0.0,3.0,86,0.00,,,0.00,WeatherCatV1.10B1784,2013-08-08 08:36:00,
2013-08-08 04:41:00,66.3,62.0,30.01,South,189,0.0,4.0,86,0.00,,,0.00,WeatherCatV1.10B1784,2013-08-08 08:41:00,
2013-08-08 04:46:00,66.3,62.0,30.01,South,188,0.0,3.0,86,0.00,,,0.00,WeatherCatV1.10B1784,2013-08-08 08:46:00,
2013-08-08 04:51:00,66.3,62.0,30.01,South,180,0.0,4.0,86,0.00,,,0.00,WeatherCatV1.10B1784,2013-08-08 08:51:00,
2013-08-08 04:56:00,66.3,62.0,30.00,SSE,166,0.0,4.0,86,0.00,,,0.00,WeatherCatV1.10B1784,2013-08-08 08:56:00,
2013-08-08 05:01:00,66.2,62.2,30.01,SSE,167,0.0,1.0,87,0.00,,,0.00,WeatherCatV1.10B1784,2013-08-08 09:01:00,
2013-08-08 05:06:00,66.1,62.1,30.00,SSE,162,0.0,0.0,87,0.00,,,0.00,WeatherCatV1.10B1784,2013-08-08 09:06:00,
2013-08-08 05:11:00,66.1,62.4,30.01,SSE,165,0.0,3.0,88,0.00,,,0.00,WeatherCatV1.10B1784,2013-08-08 09:11:00,
2013-08-08 05:16:00,66.1,62.4,30.01,SSE,165,0.0,0.0,88,0.00,,,0.00,WeatherCatV1.10B1784,2013-08-08 09:16:00,
2013-08-08 05:21:00,66.0,62.7,30.01,SSE,165,0.0,2.0,89,0.00,,,0.00,WeatherCatV1.10B1784,2013-08-08 09:21:00,
2013-08-08 05:26:00,65.8,62.8,30.00,SSE,165,0.0,1.0,90,0.00,,,0.00,WeatherCatV1.10B1784,2013-08-08 09:26:00,
2013-08-08 05:31:00,65.6,62.6,30.00,SSE,158,1.0,6.0,90,0.00,,,0.00,WeatherCatV1.10B1784,2013-08-08 09:31:00,
2013-08-08 05:36:00,65.3,62.6,30.00,SE,129,0.0,4.0,91,0.00,,,0.00,WeatherCatV1.10B1784,2013-08-08 09:36:00,
2013-08-08 05:41:00,65.2,62.5,30.00,SSE,148,0.0,2.0,91,0.00,,,0.00,WeatherCatV1.10B1784,2013-08-08 09:41:00,
2013-08-08 05:46:00,65.1,62.7,30.01,SSE,148,1.0,3.0,92,0.00,,,0.00,WeatherCatV1.10B1784,2013-08-08 09:46:00,
2013-08-08 05:51:00,65.1,62.7,30.00,SE,146,0.0,3.0,92,0.00,,,0.00,WeatherCatV1.10B1784,2013-08-08 09:51:00,
2013-08-08 05:56:00,65.0,62.6,30.00,SE,146,0.0,0.0,92,0.00,,,0.00,WeatherCatV1.10B1784,2013-08-08 09:56:00,
2013-08-08 06:01:00,65.0,62.6,30.01,South,174,0.0,4.0,92,0.00,,,0.00,WeatherCatV1.10B1784,2013-08-08 10:01:00,
2013-08-08 06:06:00,65.0,62.9,30.00,South,173,0.0,0.0,93,0.00,,,0.00,WeatherCatV1.10B1784,2013-08-08 10:06:00,
2013-08-08 06:11:00,64.9,62.8,30.00,SSE,148,1.0,5.0,93,0.00,,,0.00,WeatherCatV1.10B1784,2013-08-08 10:11:00,
2013-08-08 06:16:00,64.9,62.8,30.00,SSE,161,3.0,4.0,93,0.00,,,0.00,WeatherCatV1.10B1784,2013-08-08 10:16:00,
2013-08-08 06:21:00,64.9,62.8,30.00,SSE,156,1.0,4.0,93,0.00,,,0.00,WeatherCatV1.10B1784,2013-08-08 10:21:00,
2013-08-08 06:26:00,65.0,62.9,30.00,SSE,155,4.0,4.0,93,0.00,,,0.00,WeatherCatV1.10B1784,2013-08-08 10:26:00,
2013-08-08 06:31:00,65.0,62.9,30.00,SE,146,0.0,3.0,93,0.00,,,0.00,WeatherCatV1.10B1784,2013-08-08 10:31:00,
2013-08-08 06:36:00,65.1,63.0,30.00,SE,146,0.0,2.0,93,0.00,,,0.00,WeatherCatV1.10B1784,2013-08-08 10:36:00,
2013-08-08 06:41:00,65.1,63.0,30.01,South,177,0.0,3.0,93,0.00,,,0.00,WeatherCatV1.10B1784,2013-08-08 10:41:00,
2013-08-08 06:46:00,65.2,63.1,30.01,SE,144,1.0,7.0,93,0.00,,,0.00,WeatherCatV1.10B1784,2013-08-08 10:46:00,
2013-08-08 06:51:00,65.3,63.2,30.01,SE,146,0.0,8.0,93,0.00,,,0.00,WeatherCatV1.10B1784,2013-08-08 10:51:00,
2013-08-08 06:56:00,65.3,63.2,30.01,SE,146,5.0,5.0,93,0.00,,,0.00,WeatherCatV1.10B1784,2013-08-08 10:56:00,
2013-08-08 07:01:00,65.4,63.3,30.01,SE,131,0.0,0.0,93,0.00,,,0.00,WeatherCatV1.10B1784,2013-08-08 11:01:00,
2013-08-08 07:06:00,65.5,63.4,30.01,SE,146,0.0,3.0,93,0.00,,,0.00,WeatherCatV1.10B1784,2013-08-08 11:06:00,
2013-08-08 07:11:00,65.6,63.5,30.01,SE,126,2.0,5.0,93,0.00,,,0.00,WeatherCatV1.10B1784,2013-08-08 11:11:00,
2013-08-08 07:16:00,65.7,63.6,30.01,WSW,257,0.0,5.0,93,0.00,,,0.00,WeatherCatV1.10B1784,2013-08-08 11:16:00,
2013-08-08 07:21:00,65.9,63.8,30.01,ESE,123,0.0,5.0,93,0.00,,,0.00,WeatherCatV1.10B1784,2013-08-08 11:21:00,
2013-08-08 07:26:00,66.0,63.9,30.00,South,181,0.0,8.0,93,0.00,,,0.00,WeatherCatV1.10B1784,2013-08-08 11:26:00,
2013-08-08 07:31:00,66.3,64.5,30.00,SE,129,0.0,4.0,94,0.00,,,0.00,WeatherCatV1.10B1784,2013-08-08 11:31:00,
2013-08-08 07:36:00,66.4,64.3,30.00,SSE,166,0.0,2.0,93,0.00,,,0.00,WeatherCatV1.10B1784,2013-08-08 11:36:00,
2013-08-08 07:41:00,66.6,64.8,30.00,WSW,242,0.0,2.0,94,0.00,,,0.00,WeatherCatV1.10B1784,2013-08-08 11:41:00,
2013-08-08 07:46:00,66.7,64.6,30.00,NW,308,0.0,1.0,93,0.00,,,0.00,WeatherCatV1.10B1784,2013-08-08 11:46:00,
2013-08-08 07:51:00,66.7,64.6,30.00,SW,229,0.0,5.0,93,0.00,,,0.00,WeatherCatV1.10B1784,2013-08-08 11:51:00,
2013-08-08 07:56:00,66.7,64.6,30.00,South,179,4.0,5.0,93,0.00,,,0.00,WeatherCatV1.10B1784,2013-08-08 11:56:00,
2013-08-08 08:01:00,66.9,65.1,30.00,West,271,0.0,4.0,94,0.00,,,0.00,WeatherCatV1.10B1784,2013-08-08 12:01:00,
2013-08-08 08:06:00,67.0,64.9,30.00,WSW,242,3.0,3.0,93,0.00,,,0.00,WeatherCatV1.10B1784,2013-08-08 12:06:00,
2013-08-08 08:11:00,67.1,65.0,30.01,SSE,148,3.0,6.0,93,0.00,,,0.00,WeatherCatV1.10B1784,2013-08-08 12:11:00,
2013-08-08 08:16:00,67.2,65.1,30.00,SSW,210,4.0,4.0,93,0.00,,,0.00,WeatherCatV1.10B1784,2013-08-08 12:16:00,
2013-08-08 08:21:00,67.4,65.3,30.00,SW,233,0.0,0.0,93,0.00,,,0.00,WeatherCatV1.10B1784,2013-08-08 12:21:00,
2013-08-08 08:26:00,67.6,65.5,30.01,SW,233,0.0,1.0,93,0.00,,,0.00,WeatherCatV1.10B1784,2013-08-08 12:26:00,
2013-08-08 08:31:00,67.7,65.6,30.01,West,267,6.0,6.0,93,0.00,,,0.00,WeatherCatV1.10B1784,2013-08-08 12:31:00,
2013-08-08 08:36:00,67.9,65.8,30.00,WSW,242,4.0,5.0,93,0.00,,,0.00,WeatherCatV1.10B1784,2013-08-08 12:36:00,
2013-08-08 08:41:00,68.2,66.1,30.00,WSW,242,0.0,2.0,93,0.00,,,0.00,WeatherCatV1.10B1784,2013-08-08 12:41:00,
2013-08-08 08:46:00,68.5,66.4,30.01,South,190,0.0,0.0,93,0.00,,,0.00,WeatherCatV1.10B1784,2013-08-08 12:46:00,
2013-08-08 08:51:00,68.6,66.5,30.01,WSW,246,1.0,4.0,93,0.00,,,0.00,WeatherCatV1.10B1784,2013-08-08 12:51:00,
2013-08-08 08:56:00,68.8,66.7,30.01,West,267,1.0,4.0,93,0.00,,,0.00,WeatherCatV1.10B1784,2013-08-08 12:56:00,
2013-08-08 09:01:00,68.9,66.8,30.01,WSW,248,2.0,6.0,93,0.00,,,0.00,WeatherCatV1.10B1784,2013-08-08 13:01:00,
2013-08-08 09:06:00,69.1,67.0,30.01,WSW,248,0.0,1.0,93,0.00,,,0.00,WeatherCatV1.10B1784,2013-08-08 13:06:00,
2013-08-08 09:11:00,69.2,66.8,30.01,South,184,0.0,1.0,92,0.00,,,0.00,WeatherCatV1.10B1784,2013-08-08 13:11:00,
2013-08-08 09:16:00,69.2,66.8,30.01,South,190,0.0,3.0,92,0.00,,,0.00,WeatherCatV1.10B1784,2013-08-08 13:16:00,
2013-08-08 09:21:00,69.4,67.3,30.01,SSW,197,1.0,2.0,93,0.00,,,0.00,WeatherCatV1.10B1784,2013-08-08 13:21:00,
2013-08-08 09:26:00,69.5,67.1,30.01,WSW,242,0.0,1.0,92,0.00,,,0.00,WeatherCatV1.10B1784,2013-08-08 13:26:00,
2013-08-08 09:31:00,69.8,67.4,30.01,WSW,247,6.0,7.0,92,0.00,,,0.00,WeatherCatV1.10B1784,2013-08-08 13:31:00,
2013-08-08 09:36:00,70.1,67.3,30.01,West,273,0.0,5.0,91,0.00,,,0.00,WeatherCatV1.10B1784,2013-08-08 13:36:00,
2013-08-08 09:41:00,70.3,67.2,30.01,WSW,243,0.0,6.0,90,0.00,,,0.00,WeatherCatV1.10B1784,2013-08-08 13:41:00,
2013-08-08 09:46:00,70.7,67.9,30.01,SSE,147,4.0,4.0,91,0.00,,,0.00,WeatherCatV1.10B1784,2013-08-08 13:46:00,
2013-08-08 09:51:00,71.2,67.8,30.01,South,181,0.0,3.0,89,0.00,,,0.00,WeatherCatV1.10B1784,2013-08-08 13:51:00,
2013-08-08 09:56:00,72.2,68.8,30.01,SE,144,0.0,0.0,89,0.00,,,0.00,WeatherCatV1.10B1784,2013-08-08 13:56:00,
2013-08-08 10:01:00,73.1,68.7,30.01,SE,142,2.0,6.0,86,0.00,,,0.00,WeatherCatV1.10B1784,2013-08-08 14:01:00,
2013-08-08 10:06:00,74.0,69.5,30.01,SSE,147,5.0,9.0,86,0.00,,,0.00,WeatherCatV1.10B1784,2013-08-08 14:06:00,
2013-08-08 10:11:00,74.3,68.8,30.01,SE,134,0.0,6.0,83,0.00,,,0.00,WeatherCatV1.10B1784,2013-08-08 14:11:00,
2013-08-08 10:16:00,73.7,68.2,30.01,SW,225,0.0,5.0,83,0.00,,,0.00,WeatherCatV1.10B1784,2013-08-08 14:16:00,
2013-08-08 10:21:00,73.3,68.2,30.01,WSW,257,4.0,4.0,84,0.00,,,0.00,WeatherCatV1.10B1784,2013-08-08 14:21:00,
2013-08-08 10:26:00,72.7,68.3,30.02,WSW,257,2.0,2.0,86,0.00,,,0.00,WeatherCatV1.10B1784,2013-08-08 14:26:00,
2013-08-08 10:31:00,72.4,68.3,30.02,WSW,257,0.0,1.0,87,0.00,,,0.00,WeatherCatV1.10B1784,2013-08-08 14:31:00,
2013-08-08 10:36:00,72.4,68.3,30.02,WSW,257,0.0,1.0,87,0.00,,,0.00,WeatherCatV1.10B1784,2013-08-08 14:36:00,
2013-08-08 10:41:00,72.6,68.5,30.01,WSW,257,0.0,2.0,87,0.00,,,0.00,WeatherCatV1.10B1784,2013-08-08 14:41:00,
2013-08-08 10:46:00,72.6,68.2,30.01,WSW,240,0.0,0.0,86,0.00,,,0.00,WeatherCatV1.10B1784,2013-08-08 14:46:00,
2013-08-08 10:51:00,72.8,68.4,30.01,WSW,240,0.0,0.0,86,0.00,,,0.00,WeatherCatV1.10B1784,2013-08-08 14:51:00,
2013-08-08 10:56:00,72.9,68.5,30.01,SSE,161,0.0,3.0,86,0.00,,,0.00,WeatherCatV1.10B1784,2013-08-08 14:56:00,
2013-08-08 11:01:00,73.1,68.7,30.01,SSE,161,0.0,1.0,86,0.00,,,0.00,WeatherCatV1.10B1784,2013-08-08 15:01:00,
2013-08-08 11:06:00,73.5,69.0,30.01,SSE,157,0.0,1.0,86,0.00,,,0.00,WeatherCatV1.10B1784,2013-08-08 15:06:00,
2013-08-08 11:11:00,74.0,69.2,30.00,SSE,157,0.0,1.0,85,0.00,,,0.00,WeatherCatV1.10B1784,2013-08-08 15:11:00,
2013-08-08 11:16:00,74.6,69.8,30.00,SSE,151,0.0,4.0,85,0.00,,,0.00,WeatherCatV1.10B1784,2013-08-08 15:16:00,
2013-08-08 11:21:00,75.3,69.4,30.00,SSE,152,0.0,0.0,82,0.00,,,0.00,WeatherCatV1.10B1784,2013-08-08 15:21:00,
2013-08-08 11:26:00,75.4,69.5,30.00,SSE,160,0.0,0.0,82,0.00,,,0.00,WeatherCatV1.10B1784,2013-08-08 15:26:00,
2013-08-08 11:31:00,75.6,70.1,29.99,SE,134,1.0,7.0,83,0.00,,,0.00,WeatherCatV1.10B1784,2013-08-08 15:31:00,
2013-08-08 11:36:00,75.8,69.9,29.99,SSE,157,1.0,2.0,82,0.00,,,0.00,WeatherCatV1.10B1784,2013-08-08 15:36:00,
2013-08-08 11:41:00,76.3,70.7,29.99,SSE,148,7.0,7.0,83,0.00,,,0.00,WeatherCatV1.10B1784,2013-08-08 15:41:00,
2013-08-08 11:46:00,77.3,70.6,29.99,SSE,163,0.0,6.0,80,0.00,,,0.00,WeatherCatV1.10B1784,2013-08-08 15:46:00,
2013-08-08 11:51:00,77.6,70.2,29.99,SSE,156,1.0,1.0,78,0.00,,,0.00,WeatherCatV1.10B1784,2013-08-08 15:51:00,
2013-08-08 11:56:00,77.6,70.6,29.99,NW,324,0.0,1.0,79,0.00,,,0.00,WeatherCatV1.10B1784,2013-08-08 15:56:00,
2013-08-08 12:01:00,77.2,70.2,29.99,WNW,300,3.0,3.0,79,0.00,,,0.00,WeatherCatV1.10B1784,2013-08-08 16:01:00,
2013-08-08 12:06:00,77.1,70.4,29.99,SE,136,2.0,4.0,80,0.00,,,0.00,WeatherCatV1.10B1784,2013-08-08 16:06:00,
2013-08-08 12:11:00,77.5,69.7,29.99,WNW,290,3.0,6.0,77,0.00,,,0.00,WeatherCatV1.10B1784,2013-08-08 16:11:00,
2013-08-08 12:16:00,77.4,69.6,29.99,WSW,257,5.0,7.0,77,0.00,,,0.00,WeatherCatV1.10B1784,2013-08-08 16:16:00,
2013-08-08 12:21:00,76.8,69.8,29.99,SSE,154,0.0,6.0,79,0.00,,,0.00,WeatherCatV1.10B1784,2013-08-08 16:21:00,
2013-08-08 12:26:00,76.8,69.8,29.99,South,187,2.0,5.0,79,0.00,,,0.00,WeatherCatV1.10B1784,2013-08-08 16:26:00,
2013-08-08 12:31:00,76.7,69.7,29.99,NW,308,1.0,1.0,79,0.00,,,0.00,WeatherCatV1.10B1784,2013-08-08 16:31:00,
2013-08-08 12:36:00,76.6,69.6,29.99,WSW,253,1.0,6.0,79,0.00,,,0.00,WeatherCatV1.10B1784,2013-08-08 16:36:00,
2013-08-08 12:41:00,76.5,70.2,30.00,WNW,294,2.0,2.0,81,0.00,,,0.00,WeatherCatV1.10B1784,2013-08-08 16:41:00,
2013-08-08 12:46:00,76.4,69.8,30.00,ESE,117,0.0,5.0,80,0.00,,,0.00,WeatherCatV1.10B1784,2013-08-08 16:46:00,
2013-08-08 12:51:00,76.4,69.8,30.00,South,173,1.0,4.0,80,0.00,,,0.00,WeatherCatV1.10B1784,2013-08-08 16:51:00,
2013-08-08 12:56:00,76.1,69.5,30.00,West,274,0.0,5.0,80,0.00,,,0.00,WeatherCatV1.10B1784,2013-08-08 16:56:00,
2013-08-08 13:01:00,75.6,69.0,30.00,WSW,257,1.0,1.0,80,0.00,,,0.00,WeatherCatV1.10B1784,2013-08-08 17:01:00,
2013-08-08 13:06:00,75.5,69.6,30.00,South,180,0.0,3.0,82,0.00,,,0.00,WeatherCatV1.10B1784,2013-08-08 17:06:00,
2013-08-08 13:11:00,75.5,69.6,30.00,South,179,1.0,3.0,82,0.00,,,0.00,WeatherCatV1.10B1784,2013-08-08 17:11:00,
2013-08-08 13:16:00,75.7,69.8,30.00,SE,144,0.0,1.0,82,0.00,,,0.00,WeatherCatV1.10B1784,2013-08-08 17:16:00,
2013-08-08 13:21:00,75.7,70.5,30.00,SE,143,1.0,3.0,84,0.00,,,0.00,WeatherCatV1.10B1784,2013-08-08 17:21:00,
2013-08-08 13:26:00,75.5,70.3,30.00,SSE,152,1.0,1.0,84,0.00,,,0.00,WeatherCatV1.10B1784,2013-08-08 17:26:00,
2013-08-08 13:31:00,75.1,69.6,30.00,SSE,153,0.0,0.0,83,0.00,,,0.00,WeatherCatV1.10B1784,2013-08-08 17:31:00,
2013-08-08 13:36:00,75.2,70.0,30.00,SE,139,0.0,5.0,84,0.00,,,0.00,WeatherCatV1.10B1784,2013-08-08 17:36:00,
2013-08-08 13:41:00,75.3,70.1,30.00,SE,142,3.0,5.0,84,0.00,,,0.00,WeatherCatV1.10B1784,2013-08-08 17:41:00,
2013-08-08 13:46:00,75.3,69.8,30.00,SE,135,2.0,6.0,83,0.00,,,0.00,WeatherCatV1.10B1784,2013-08-08 17:46:00,
2013-08-08 13:51:00,75.1,69.9,30.00,SSE,155,0.0,3.0,84,0.00,,,0.00,WeatherCatV1.10B1784,2013-08-08 17:51:00,
2013-08-08 13:56:00,75.0,69.8,30.00,West,279,3.0,4.0,84,0.00,,,0.00,WeatherCatV1.10B1784,2013-08-08 17:56:00,
2013-08-08 14:01:00,74.8,69.6,30.00,SW,218,0.0,4.0,84,0.00,,,0.00,WeatherCatV1.10B1784,2013-08-08 18:01:00,
2013-08-08 14:06:00,75.1,70.3,30.00,SE,140,0.0,3.0,85,0.00,,,0.00,WeatherCatV1.10B1784,2013-08-08 18:06:00,
2013-08-08 14:11:00,75.5,70.3,30.00,SSE,152,0.0,4.0,84,0.00,,,0.00,WeatherCatV1.10B1784,2013-08-08 18:11:00,
2013-08-08 14:16:00,75.4,69.9,30.00,WSW,257,3.0,6.0,83,0.00,,,0.00,WeatherCatV1.10B1784,2013-08-08 18:16:00,
2013-08-08 14:21:00,74.9,69.7,29.99,SW,233,3.0,5.0,84,0.00,,,0.00,WeatherCatV1.10B1784,2013-08-08 18:21:00,
2013-08-08 14:26:00,75.4,69.9,29.99,South,169,0.0,3.0,83,0.00,,,0.00,WeatherCatV1.10B1784,2013-08-08 18:26:00,
2013-08-08 14:31:00,76.0,70.1,29.99,WSW,242,3.0,4.0,82,0.00,,,0.00,WeatherCatV1.10B1784,2013-08-08 18:31:00,
2013-08-08 14:36:00,76.7,70.4,29.99,SSE,152,1.0,7.0,81,0.00,,,0.00,WeatherCatV1.10B1784,2013-08-08 18:36:00,
2013-08-08 14:41:00,76.8,70.1,29.99,WSW,248,0.0,1.0,80,0.00,,,0.00,WeatherCatV1.10B1784,2013-08-08 18:41:00,
2013-08-08 14:46:00,77.0,70.7,29.98,SE,143,8.0,8.0,81,0.00,,,0.00,WeatherCatV1.10B1784,2013-08-08 18:46:00,
2013-08-08 14:51:00,78.3,71.2,29.98,East,80,0.0,3.0,79,0.00,,,0.00,WeatherCatV1.10B1784,2013-08-08 18:51:00,
2013-08-08 14:56:00,78.5,70.7,29.99,WSW,242,0.0,1.0,77,0.00,,,0.00,WeatherCatV1.10B1784,2013-08-08 18:56:00,
2013-08-08 15:01:00,79.2,71.0,29.99,SW,224,1.0,4.0,76,0.00,,,0.00,WeatherCatV1.10B1784,2013-08-08 19:01:00,
2013-08-08 15:06:00,78.7,70.5,29.99,SE,138,0.0,4.0,76,0.00,,,0.00,WeatherCatV1.10B1784,2013-08-08 19:06:00,
2013-08-08 15:11:00,78.4,70.6,29.98,SW,232,0.0,5.0,77,0.00,,,0.00,WeatherCatV1.10B1784,2013-08-08 19:11:00,
2013-08-08 15:16:00,79.0,70.8,29.98,WSW,248,0.0,8.0,76,0.00,,,0.00,WeatherCatV1.10B1784,2013-08-08 19:16:00,
2013-08-08 15:21:00,78.9,70.7,29.98,SSE,154,0.0,3.0,76,0.00,,,0.00,WeatherCatV1.10B1784,2013-08-08 19:21:00,
2013-08-08 15:26:00,79.8,71.9,29.98,WSW,246,0.0,1.0,77,0.00,,,0.00,WeatherCatV1.10B1784,2013-08-08 19:26:00,
2013-08-08 15:31:00,80.8,70.9,29.98,SE,135,2.0,4.0,72,0.00,,,0.00,WeatherCatV1.10B1784,2013-08-08 19:31:00,
2013-08-08 15:36:00,79.8,70.4,29.98,SW,229,3.0,8.0,73,0.00,,,0.00,WeatherCatV1.10B1784,2013-08-08 19:36:00,
2013-08-08 15:41:00,79.2,70.6,29.98,WSW,237,0.0,7.0,75,0.00,,,0.00,WeatherCatV1.10B1784,2013-08-08 19:41:00,
2013-08-08 15:46:00,79.7,71.1,29.98,SSW,193,1.0,5.0,75,0.00,,,0.00,WeatherCatV1.10B1784,2013-08-08 19:46:00,
2013-08-08 15:51:00,80.8,71.7,29.97,South,177,0.0,2.0,74,0.00,,,0.00,WeatherCatV1.10B1784,2013-08-08 19:51:00,
2013-08-08 15:56:00,80.7,70.8,29.98,WSW,252,1.0,7.0,72,0.00,,,0.00,WeatherCatV1.10B1784,2013-08-08 19:56:00,
2013-08-08 16:01:00,80.4,71.3,29.97,SW,217,0.0,3.0,74,0.00,,,0.00,WeatherCatV1.10B1784,2013-08-08 20:01:00,
2013-08-08 16:06:00,81.1,70.8,29.97,SW,231,1.0,9.0,71,0.00,,,0.00,WeatherCatV1.10B1784,2013-08-08 20:06:00,
2013-08-08 16:11:00,80.9,70.6,29.97,SW,232,1.0,9.0,71,0.00,,,0.00,WeatherCatV1.10B1784,2013-08-08 20:11:00,
2013-08-08 16:16:00,80.1,71.4,29.98,SW,225,0.0,5.0,75,0.00,,,0.00,WeatherCatV1.10B1784,2013-08-08 20:16:00,
2013-08-08 16:21:00,79.9,70.4,29.97,WSW,242,1.0,7.0,73,0.00,,,0.00,WeatherCatV1.10B1784,2013-08-08 20:21:00,
2013-08-08 16:26:00,79.2,70.2,29.97,WSW,239,4.0,6.0,74,0.00,,,0.00,WeatherCatV1.10B1784,2013-08-08 20:26:00,
2013-08-08 16:31:00,79.2,71.0,29.97,SW,233,0.0,4.0,76,0.00,,,0.00,WeatherCatV1.10B1784,2013-08-08 20:31:00,
2013-08-08 16:36:00,79.9,70.8,29.96,South,189,0.0,5.0,74,0.00,,,0.00,WeatherCatV1.10B1784,2013-08-08 20:36:00,
2013-08-08 16:41:00,79.9,71.2,29.96,SE,141,0.0,6.0,75,0.00,,,0.00,WeatherCatV1.10B1784,2013-08-08 20:41:00,
2013-08-08 16:46:00,79.6,70.6,29.96,SW,228,0.0,0.0,74,0.00,,,0.00,WeatherCatV1.10B1784,2013-08-08 20:46:00,
2013-08-08 16:51:00,79.8,71.1,29.96,SE,146,0.0,0.0,75,0.00,,,0.00,WeatherCatV1.10B1784,2013-08-08 20:51:00,
2013-08-08 16:56:00,80.1,71.0,29.96,SSE,147,0.0,1.0,74,0.00,,,0.00,WeatherCatV1.10B1784,2013-08-08 20:56:00,
2013-08-08 17:01:00,79.9,70.8,29.96,WSW,248,0.0,5.0,74,0.00,,,0.00,WeatherCatV1.10B1784,2013-08-08 21:01:00,
2013-08-08 17:06:00,79.8,71.1,29.96,WSW,257,2.0,5.0,75,0.00,,,0.00,WeatherCatV1.10B1784,2013-08-08 21:06:00,
2013-08-08 17:11:00,79.6,71.3,29.97,WSW,253,0.0,0.0,76,0.00,,,0.00,WeatherCatV1.10B1784,2013-08-08 21:11:00,
2013-08-08 17:16:00,79.5,71.6,29.96,WSW,253,0.0,3.0,77,0.00,,,0.00,WeatherCatV1.10B1784,2013-08-08 21:16:00,
2013-08-08 17:21:00,79.3,71.4,29.96,SE,127,0.0,5.0,77,0.00,,,0.00,WeatherCatV1.10B1784,2013-08-08 21:21:00,
2013-08-08 17:26:00,79.2,71.0,29.96,WSW,240,0.0,3.0,76,0.00,,,0.00,WeatherCatV1.10B1784,2013-08-08 21:26:00,
2013-08-08 17:31:00,79.2,71.3,29.96,SE,142,0.0,5.0,77,0.00,,,0.00,WeatherCatV1.10B1784,2013-08-08 21:31:00,
2013-08-08 17:36:00,79.4,71.9,29.95,SE,142,0.0,3.0,78,0.00,,,0.00,WeatherCatV1.10B1784,2013-08-08 21:36:00,
2013-08-08 17:41:00,79.6,71.7,29.95,SSE,156,0.0,0.0,77,0.00,,,0.00,WeatherCatV1.10B1784,2013-08-08 21:41:00,
2013-08-08 17:46:00,79.4,71.5,29.95,SSE,156,0.0,1.0,77,0.00,,,0.00,WeatherCatV1.10B1784,2013-08-08 21:46:00,
2013-08-08 17:51:00,79.5,71.6,29.95,SSE,156,0.0,0.0,77,0.00,,,0.00,WeatherCatV1.10B1784,2013-08-08 21:51:00,
2013-08-08 17:56:00,79.8,71.9,29.95,SSE,151,0.0,2.0,77,0.00,,,0.00,WeatherCatV1.10B1784,2013-08-08 21:56:00,
2013-08-08 18:01:00,80.1,72.2,29.95,SSE,151,0.0,3.0,77,0.00,,,0.00,WeatherCatV1.10B1784,2013-08-08 22:01:00,
2013-08-08 18:07:00,80.7,72.4,29.95,SSE,152,0.0,3.0,76,0.00,,,0.00,WeatherCatV1.10B1784,2013-08-08 22:07:00,
2013-08-08 18:12:00,81.0,72.3,29.95,SSE,160,0.0,3.0,75,0.00,,,0.00,WeatherCatV1.10B1784,2013-08-08 22:12:00,
2013-08-08 18:17:00,80.3,72.0,29.96,WSW,250,0.0,0.0,76,0.00,,,0.00,WeatherCatV1.10B1784,2013-08-08 22:17:00,
2013-08-08 18:22:00,80.2,71.9,29.95,SE,142,0.0,2.0,76,0.00,,,0.00,WeatherCatV1.10B1784,2013-08-08 22:22:00,
2013-08-08 18:27:00,80.1,71.8,29.95,SSE,150,1.0,1.0,76,0.00,,,0.00,WeatherCatV1.10B1784,2013-08-08 22:27:00,
2013-08-08 18:32:00,79.1,71.2,29.95,WSW,241,0.0,1.0,77,0.00,,,0.00,WeatherCatV1.10B1784,2013-08-08 22:32:00,
2013-08-08 18:37:00,78.5,70.7,29.95,SSW,204,0.0,3.0,77,0.00,,,0.00,WeatherCatV1.10B1784,2013-08-08 22:37:00,
2013-08-08 18:42:00,78.0,70.6,29.95,SW,231,1.0,1.0,78,0.00,,,0.00,WeatherCatV1.10B1784,2013-08-08 22:42:00,
2013-08-08 18:47:00,77.8,71.1,29.95,SW,231,0.0,0.0,80,0.00,,,0.00,WeatherCatV1.10B1784,2013-08-08 22:47:00,
2013-08-08 18:52:00,77.8,71.1,29.95,SW,231,0.0,1.0,80,0.00,,,0.00,WeatherCatV1.10B1784,2013-08-08 22:52:00,
2013-08-08 18:57:00,77.8,71.1,29.95,SW,231,0.0,0.0,80,0.00,,,0.00,WeatherCatV1.10B1784,2013-08-08 22:57:00,
2013-08-08 19:02:00,77.7,71.0,29.95,SW,231,0.0,0.0,80,0.00,,,0.00,WeatherCatV1.10B1784,2013-08-08 23:02:00,
2013-08-08 19:07:00,77.4,71.1,29.96,SW,231,0.0,2.0,81,0.00,,,0.00,WeatherCatV1.10B1784,2013-08-08 23:07:00,
2013-08-08 19:12:00,77.0,70.7,29.96,SW,231,0.0,1.0,81,0.00,,,0.00,WeatherCatV1.10B1784,2013-08-08 23:12:00,
2013-08-08 19:17:00,76.8,70.9,29.96,SW,231,1.0,1.0,82,0.00,,,0.00,WeatherCatV1.10B1784,2013-08-08 23:17:00,
2013-08-08 19:22:00,76.5,70.6,29.96,SW,231,0.0,1.0,82,0.00,,,0.00,WeatherCatV1.10B1784,2013-08-08 23:22:00,
2013-08-08 19:27:00,76.3,70.7,29.96,SW,230,0.0,2.0,83,0.00,,,0.00,WeatherCatV1.10B1784,2013-08-08 23:27:00,
2013-08-08 19:32:00,76.1,70.5,29.96,SW,230,0.0,0.0,83,0.00,,,0.00,WeatherCatV1.10B1784,2013-08-08 23:32:00,
2013-08-08 19:37:00,76.0,70.4,29.96,SW,230,0.0,0.0,83,0.00,,,0.00,WeatherCatV1.10B1784,2013-08-08 23:37:00,
2013-08-08 19:42:00,75.9,70.4,29.97,SW,230,0.0,0.0,83,0.00,,,0.00,WeatherCatV1.10B1784,2013-08-08 23:42:00,
2013-08-08 19:47:00,75.8,70.6,29.97,SW,230,0.0,0.0,84,0.00,,,0.00,WeatherCatV1.10B1784,2013-08-08 23:47:00,
2013-08-08 19:52:00,75.7,70.5,29.97,SW,230,0.0,0.0,84,0.00,,,0.00,WeatherCatV1.10B1784,2013-08-08 23:52:00,
2013-08-08 19:57:00,75.6,70.4,29.97,SW,230,0.0,0.0,84,0.00,,,0.00,WeatherCatV1.10B1784,2013-08-08 23:57:00,
2013-08-08 20:02:00,75.4,70.2,29.97,SW,230,0.0,1.0,84,0.00,,,0.00,WeatherCatV1.10B1784,2013-08-09 00:02:00,
2013-08-08 20:07:00,75.2,70.0,29.97,SW,230,0.0,0.0,84,0.00,,,0.00,WeatherCatV1.10B1784,2013-08-09 00:07:00,
2013-08-08 20:12:00,74.9,70.1,29.97,SW,230,0.0,0.0,85,0.00,,,0.00,WeatherCatV1.10B1784,2013-08-09 00:12:00,
2013-08-08 20:17:00,74.7,69.9,29.97,SW,230,0.0,0.0,85,0.00,,,0.00,WeatherCatV1.10B1784,2013-08-09 00:17:00,
2013-08-08 20:22:00,74.4,69.9,29.97,SW,230,0.0,0.0,86,0.00,,,0.00,WeatherCatV1.10B1784,2013-08-09 00:22:00,
2013-08-08 20:27:00,74.1,70.0,29.97,SW,230,0.0,0.0,87,0.00,,,0.00,WeatherCatV1.10B1784,2013-08-09 00:27:00,
2013-08-08 20:32:00,73.9,69.8,29.98,SW,230,0.0,0.0,87,0.00,,,0.00,WeatherCatV1.10B1784,2013-08-09 00:32:00,
2013-08-08 20:37:00,73.7,69.6,29.98,SW,230,0.0,0.0,87,0.00,,,0.00,WeatherCatV1.10B1784,2013-08-09 00:37:00,
2013-08-08 20:42:00,73.6,69.5,29.98,SW,230,0.0,0.0,87,0.00,,,0.00,WeatherCatV1.10B1784,2013-08-09 00:42:00,
2013-08-08 20:47:00,73.3,69.5,29.98,SW,230,0.0,0.0,88,0.00,,,0.00,WeatherCatV1.10B1784,2013-08-09 00:47:00,
2013-08-08 20:52:00,73.1,69.3,29.99,SW,230,0.0,0.0,88,0.00,,,0.00,WeatherCatV1.10B1784,2013-08-09 00:52:00,
2013-08-08 20:57:00,73.0,69.2,29.99,SW,230,0.0,0.0,88,0.00,,,0.00,WeatherCatV1.10B1784,2013-08-09 00:57:00,
2013-08-08 21:02:00,72.8,69.4,29.99,SW,230,0.0,0.0,89,0.00,,,0.00,WeatherCatV1.10B1784,2013-08-09 01:02:00,
2013-08-08 21:07:00,72.6,69.2,29.99,SW,230,0.0,1.0,89,0.00,,,0.00,WeatherCatV1.10B1784,2013-08-09 01:07:00,
2013-08-08 21:12:00,72.7,69.3,29.99,SW,230,0.0,0.0,89,0.00,,,0.00,WeatherCatV1.10B1784,2013-08-09 01:12:00,
2013-08-08 21:17:00,72.7,69.3,29.99,SW,230,0.0,0.0,89,0.00,,,0.00,WeatherCatV1.10B1784,2013-08-09 01:17:00,
2013-08-08 21:22:00,72.8,69.4,29.99,SW,230,0.0,2.0,89,0.00,,,0.00,WeatherCatV1.10B1784,2013-08-09 01:22:00,
2013-08-08 21:27:00,72.8,69.4,29.99,SW,230,0.0,0.0,89,0.00,,,0.00,WeatherCatV1.10B1784,2013-08-09 01:27:00,
2013-08-08 21:32:00,72.8,69.4,29.99,SW,225,0.0,3.0,89,0.00,,,0.00,WeatherCatV1.10B1784,2013-08-09 01:32:00,
2013-08-08 21:37:00,72.8,69.4,29.99,SW,225,0.0,1.0,89,0.00,,,0.00,WeatherCatV1.10B1784,2013-08-09 01:37:00,
2013-08-08 21:42:00,72.8,69.0,29.99,SW,223,0.0,4.0,88,0.00,,,0.00,WeatherCatV1.10B1784,2013-08-09 01:42:00,
2013-08-08 21:47:00,72.9,69.1,29.99,SW,223,0.0,0.0,88,0.00,,,0.00,WeatherCatV1.10B1784,2013-08-09 01:47:00,
2013-08-08 21:52:00,72.9,69.1,29.99,SW,223,0.0,2.0,88,0.00,,,0.00,WeatherCatV1.10B1784,2013-08-09 01:52:00,
2013-08-08 21:57:00,72.9,69.1,29.98,SW,223,0.0,0.0,88,0.00,,,0.00,WeatherCatV1.10B1784,2013-08-09 01:57:00,
2013-08-08 22:02:00,72.9,69.1,29.98,SW,223,0.0,0.0,88,0.00,,,0.00,WeatherCatV1.10B1784,2013-08-09 02:02:00,
2013-08-08 22:07:00,72.8,69.0,29.99,SW,223,0.0,0.0,88,0.00,,,0.00,WeatherCatV1.10B1784,2013-08-09 02:07:00,
2013-08-08 22:12:00,72.8,69.0,29.99,SW,223,0.0,0.0,88,0.00,,,0.00,WeatherCatV1.10B1784,2013-08-09 02:12:00,
2013-08-08 22:17:00,72.7,68.9,29.98,SW,223,0.0,0.0,88,0.00,,,0.00,WeatherCatV1.10B1784,2013-08-09 02:17:00,
2013-08-08 22:22:00,72.7,69.3,29.98,SW,223,0.0,0.0,89,0.00,,,0.00,WeatherCatV1.10B1784,2013-08-09 02:22:00,
2013-08-08 22:27:00,72.6,69.2,29.98,SW,223,3.0,3.0,89,0.00,,,0.00,WeatherCatV1.10B1784,2013-08-09 02:27:00,
2013-08-08 22:32:00,72.5,69.1,29.98,SW,223,0.0,0.0,89,0.00,,,0.00,WeatherCatV1.10B1784,2013-08-09 02:32:00,
2013-08-08 22:37:00,72.4,69.0,29.98,SW,223,2.0,2.0,89,0.00,,,0.00,WeatherCatV1.10B1784,2013-08-09 02:37:00,
2013-08-08 22:42:00,72.3,68.9,29.98,SW,223,0.0,1.0,89,0.00,,,0.00,WeatherCatV1.10B1784,2013-08-09 02:42:00,
2013-08-08 22:47:00,72.2,69.1,29.98,SW,235,0.0,0.0,90,0.00,,,0.00,WeatherCatV1.10B1784,2013-08-09 02:47:00,
2013-08-08 22:52:00,72.2,69.1,29.98,WSW,240,0.0,0.0,90,0.00,,,0.00,WeatherCatV1.10B1784,2013-08-09 02:52:00,
2013-08-08 22:57:00,72.2,69.1,29.97,SW,236,0.0,0.0,90,0.00,,,0.00,WeatherCatV1.10B1784,2013-08-09 02:57:00,
2013-08-08 23:02:00,72.3,69.2,29.97,West,271,0.0,5.0,90,0.00,,,0.00,WeatherCatV1.10B1784,2013-08-09 03:02:00,
2013-08-08 23:07:00,72.4,69.3,29.97,SW,234,0.0,0.0,90,0.00,,,0.00,WeatherCatV1.10B1784,2013-08-09 03:07:00,
2013-08-08 23:12:00,72.5,69.4,29.97,SE,126,0.0,0.0,90,0.00,,,0.00,WeatherCatV1.10B1784,2013-08-09 03:12:00,
2013-08-08 23:17:00,72.5,69.4,29.97,WSW,253,0.0,5.0,90,0.00,,,0.00,WeatherCatV1.10B1784,2013-08-09 03:17:00,
2013-08-08 23:22:00,72.4,69.3,29.97,WSW,244,0.0,3.0,90,0.00,,,0.00,WeatherCatV1.10B1784,2013-08-09 03:22:00,
2013-08-08 23:27:00,72.4,69.3,29.97,SW,219,0.0,3.0,90,0.00,,,0.00,WeatherCatV1.10B1784,2013-08-09 03:27:00,
2013-08-08 23:32:00,72.3,69.2,29.97,WSW,246,0.0,3.0,90,0.00,,,0.00,WeatherCatV1.10B1784,2013-08-09 03:32:00,
2013-08-08 23:37:00,72.3,69.2,29.97,WSW,244,0.0,3.0,90,0.00,,,0.00,WeatherCatV1.10B1784,2013-08-09 03:37:00,
2013-08-08 23:42:00,72.3,69.2,29.98,WSW,242,0.0,0.0,90,0.00,,,0.00,WeatherCatV1.10B1784,2013-08-09 03:42:00,
2013-08-08 23:47:00,72.3,69.2,29.97,WSW,244,0.0,3.0,90,0.00,,,0.00,WeatherCatV1.10B1784,2013-08-09 03:47:00,
2013-08-08 23:52:00,72.2,69.1,29.97,WSW,244,0.0,3.0,90,0.00,,,0.00,WeatherCatV1.10B1784,2013-08-09 03:52:00,
2013-08-08 23:57:00,72.2,69.1,29.97,South,179,0.0,0.0,90,0.00,,,0.00,WeatherCatV1.10B1784,2013-08-09 03:57:00,